Погода в Чапаевском

Россия / Саратовская область     51°50′29″N   49°08′33″E
темп.,
°C
ветер,
м/с
пор.,
м/с
влажн.,
%
обл.,
%
осадки,
мм/ч
давл.,
гПа
погр.,
м
11 апреля, вс
вс1101:00+14ююв61363100 0.1 1020251
04:00+12ююв41268100 0.1 1022235
07:00+12юв51271100 0.0 1023276
10:00+16ююв7135998 0.0 1025559
13:00+21ююв794384 0.0 10251017
16:00+22ююв683999 0.0 10261273
19:00+17вюв4859100 0.0 1027127
22:00+14вюв51170100 0.0 1028196
12 апреля, пн
пн1201:00+12вюв41071100 0.0 1029155
04:00+10вюв467287 0.0 103082
07:00+10вюв4774100 0.0 1030115
10:00+15вюв4658100 0.0 1031346
13:00+19юв5643100 0.0 1031812
16:00+20вюв5639100 0.0 10311053
19:00+15в4557100 0.0 103176
22:00+12вюв4866100 0.0 1032116
13 апреля, вт
вт1301:00+10вюв4863100 0.0 1032109
04:00+8вюв4765100 0.0 103394
07:00+7вюв487014 0.0 1033145
10:00+14вюв57495 0.0 1033444
13:00+18вюв56371 0.0 1032979
16:00+19вюв56351 0.0 10311169
19:00+15вюв47535 0.0 1030129
22:00+11вюв46625 0.0 103085
14 апреля, ср
ср1401:00+9вюв34655 0.0 103046
04:00+7в34650 0.0 102948
07:00+7в37680 0.0 1029118
10:00+14вюв58485 0.0 1028438
13:00+18вюв56350 0.0 10261048
16:00+19вюв56350 0.0 10251274
19:00+16в35550 0.0 102375
22:00+12в46745 0.0 102386
15 апреля, чт
чт1501:00+11в34800 0.0 102248
04:00+9в34845 0.0 102142
07:00+9в36820 0.0 1021129
10:00+15вюв46580 0.0 1020532
13:00+18юв44490 0.0 10181297
16:00+20вюв344429 0.0 10161765
19:00+17в355852 0.0 1015105
22:00+15юв366497 0.0 1015120